Regional Weather Roundup
Issued by NWS

Home | Current Version | Previous Version | Text Only | Print | Product List | Glossary On
Versions: 1 2 3 4 5 6 7 8 9 10 11 12 13 14 15 16 17 18 19 20 21 22 23 24 25 26 27 28 29 30 31 32 33 34 35 36 37 38 39 40 41 42 43 44 45 46 47 48 49 50
000
ASUS43 KOAX 011502
RWRNE

WEATHER ROUNDUP FOR NEBRASKA
NATIONAL WEATHER SERVICE OMAHA NE
1000 AM CDT TUE SEP 01 2015

NOTES: SATELLITE DATA IS BEING USED TO AUGMENT CLOUD COVER ABOVE
       12000 FEET.
       "FAIR" INDICATES FEW OR NO CLOUDS BELOW 12,000 FEET WITH NO
       SIGNIFICANT WEATHER AND/OR OBSTRUCTIONS TO VISIBILITY.

  * THESE STATIONS DO NOT REPORT WEATHER SUCH AS RAIN...SNOW OR FOG.

NEZ001>004-019>022-054>056-011600-
NEBRASKA PANHANDLE

CITY           SKY/WX    TMP DP  RH WIND       PRES   REMARKS
SCOTTSBLUFF    SUNNY     66  53  63 W6        30.00R
ALLIANCE       SUNNY     74  50  42 W8        29.98S
CHADRON        SUNNY     74  49  41 W6        29.92S
KIMBALL        SUNNY     69  55  59 W9        30.06R
SIDNEY         SUNNY     77  51  40 W14       30.03F
$$

NEZ057>060-069>072-079>082-011600-
SOUTHWEST NEBRASKA

CITY           SKY/WX    TMP DP  RH WIND       PRES   REMARKS
NORTH PLATTE   MOSUNNY   74  63  68 CALM      29.95S
IMPERIAL       MOSUNNY   70  58  65 W5        29.99S
LEXINGTON      MOSUNNY   74  62  68 S5        29.94S
MCCOOK         SUNNY     75  63  66 VRB3      29.96R
$$

NEZ005>010-023>029-035>040-094-011600-
NORTH CENTRAL NEBRASKA

CITY           SKY/WX    TMP DP  RH WIND       PRES   REMARKS
VALENTINE      PTSUNNY   69  64  84 W5        29.93S
AINSWORTH      CLOUDY    72  68  86 S8        29.94R
BROKEN BOW     CLOUDY    73  61  65 CALM      29.94R
ORD            CLOUDY    72  61  68 S5        29.91F
$$

NEZ041-046>049-061>064-073>077-083>087-011600-
SOUTH CENTRAL NEBRASKA

CITY           SKY/WX    TMP DP  RH WIND       PRES   REMARKS
GRAND ISLAND   PTSUNNY   77  61  57 S14       29.94S
AURORA         PTSUNNY   74  66  74 SW8       29.95S
HASTINGS       PTSUNNY   76  63  64 S9        29.95S
HEBRON         CLOUDY    75  63  64 S10       29.95F
HOLDREGE       PTSUNNY   76  58  54 SW13G20   29.95R
KEARNEY *      CLOUDY    75  57  53 SW12      29.94S
YORK           CLOUDY    73  66  78 S9        29.95R
$$

NEZ011>018-030>034-042>045-011600-
NORTHEAST NEBRASKA

CITY           SKY/WX    TMP DP  RH WIND       PRES   REMARKS
NORFOLK        CLOUDY    76  64  66 SW9       29.91R
ALBION         CLOUDY    72  64  74 S5        29.92S
BLAIR          MOSUNNY   75  67  75 S10       29.95R
COLUMBUS *     CLOUDY    73  61  64 SW6       29.94R
FREMONT        PTSUNNY   76  66  70 S6        29.94S
TEKAMAH        MOSUNNY   77  69  76 S9        29.92S
WAYNE          PTSUNNY   73  67  80 S12       29.90S
$$

NEZ050>053-065>068-078-088>093-011600-
SOUTHEAST NEBRASKA

CITY           SKY/WX    TMP DP  RH WIND       PRES   REMARKS
LINCOLN        PTSUNNY   79  66  64 S14       29.95S
OMAHA EPPLEY   PTSUNNY   77  69  76 S12       29.95S
BEATRICE       MOSUNNY   77  67  70 S9        29.97R
FALLS CITY     SUNNY     79  68  69 S10G22    29.98S
NEBRASKA CITY  MOSUNNY   76  65  68 S12       29.97S
PLATTSMOUTH    MOSUNNY   75  67  76 S7        29.97R
$$

NEZ044-045-051>053-067-011600-
OMAHA AREA

CITY           SKY/WX    TMP DP  RH WIND       PRES   REMARKS
OMAHA EPPLEY   PTSUNNY   77  69  76 S12       29.95S
BLAIR          MOSUNNY   75  67  75 S10       29.95R
FREMONT        PTSUNNY   76  66  70 S6        29.94S
OFFUTT AFB     MOSUNNY   76  69  80 S8        29.95S
PLATTSMOUTH    MOSUNNY   75  67  76 S7        29.97R
WAHOO          FAIR      77  68  75 S10       29.94R
$$




USA.gov is the U.S. government's official web portal to all federal, state and local government web resources and services.